Hourly Data Report for September 07, 2017

All times are specified in Local Standard Time (LST). Add 1 hour to adjust for Daylight Saving Time where and when it is observed.

PETAWAWA AWOS 2
ONTARIO

45°57'00.000" N
77°19'00.000" W
130.10 m
6106396
71625
YWA

Download Data

Hourly Data (September 2017)
Hourly Data Report for September 7, 2017
Temp Definition
°C
Dew Point Temp Definition
°C
Rel Hum Definition
%
Wind Dir Definition
10's deg

Wind Spd Definition
km/h
Visibility Definition
km
Stn Press Definition
kPa
Hmdx Definition


Wind Chill Definition


Weather Definition


TIME
00:00 12.3 11.7 96 26 4 14.5 99.53     LegendNANA
01:00 11.6 11.3 98 26 4 14.5 99.47     LegendNANA
02:00 11.7 11.3 97   0 14.5 99.43     LegendNANA
03:00 12.3 11.7 96 28 6 14.5 99.37     LegendNANA
04:00 11.7 11.1 96 26 7 14.5 99.33     LegendNANA
05:00 11.8 11.1 96 27 6 14.5 99.32     LegendNANA
06:00 11.3 10.8 97 28 4 14.5 99.34     LegendNANA
07:00 11.4 11.1 98 23 6 14.5 99.32     LegendNANA
08:00 12.6 11.5 93 25 7 14.5 99.30     LegendNANA
09:00 13.5 11.6 88 32 4 14.5 99.30     LegendNANA
10:00 15.2 11.8 80 27 4 14.5 99.29     LegendNANA
11:00 17.5 9.9 61 29 13 14.5 99.27     LegendNANA
12:00 17.4 12.0 71 30 11 14.5 99.22     LegendNANA
13:00 17.8 12.1 69 35 13 14.5 99.18     LegendNANA
14:00 18.1 10.5 61 26 9 14.5 99.16     LegendNANA
15:00 16.4 14.1 86 32 4 14.5 99.18     LegendNANA
16:00 17.6 11.4 67 26 11 14.5 99.21     LegendNANA
17:00 16.9 11.4 70 28 11 14.5 99.24     LegendNANA
18:00 14.2 11.7 85 30 4 14.5 99.27     LegendNANA
19:00 12.6 11.6 94 29 4 14.5 99.32     LegendNANA
20:00 11.8 11.2 96 26 7 14.5 99.40     LegendNANA
21:00 11.8 10.7 93 28 7 14.5 99.42     LegendNANA
22:00 12.2 11.2 94 28 7 14.5 99.46     LegendNANA
23:00 11.2 10.0 92 28 15 14.5 99.51     LegendNANA

Notes on Data Quality.

Legend

  • E = Estimated
  • M = Missing
  • NA = Not Available
  • ‡ = Partner data that is not subject to review by the National Climate Archives
Date modified: